Wind_Speed
21 21 21 21 21 22 22 21 21 20 21 21 22 23 23 23 23 23 23 22 22 22 22 21 21 21 21 20 20 19 19 19 19 19 19 19 19 19 19 19 19 18 17 16
22 21 21 22 21 22 23 23 22 21 21 22 22 23 24 25 25 25 24 24 23 23 23 22 22 22 22 22 21 20 20 20 20 20 20 19 20 20 20 20 20 19 19 18
22 22 22 22 21 22 23 23 23 22 21 21 22 23 24 25 26 26 26 25 24 24 24 24 24 24 24 23 22 22 22 22 22 22 22 22 22 22 22 22 22 21 21 20
22 22 23 22 21 23 23 23 24 23 22 22 23 24 24 25 26 27 27 26 26 25 25 25 25 25 24 24 24 23 23 23 22 23 23 22 22 22 23 23 23 22 22 21
23 23 23 22 22 24 24 23 24 24 23 24 24 24 25 26 26 27 27 27 27 26 26 26 25 25 25 24 24 24 23 23 22 23 23 23 23 22 23 24 24 23 24 23
22 23 23 22 22 23 24 24 23 24 24 24 25 25 25 25 26 27 27 27 27 27 27 27 26 26 26 25 24 24 23 23 23 23 23 23 23 23 23 23 24 25 25 24
22 23 24 22 22 23 24 23 23 24 24 24 25 25 25 25 26 26 27 27 27 27 27 27 27 27 26 26 25 25 25 25 24 24 25 25 25 25 24 24 24 26 26 26
23 24 23 23 23 23 24 24 24 24 24 24 25 25 26 26 26 27 27 27 28 28 28 28 27 27 27 27 27 26 27 26 26 26 26 26 26 26 26 26 26 26 27 27
23 23 24 24 24 24 25 25 25 25 25 26 26 26 27 27 28 28 28 28 28 29 28 28 28 29 28 29 29 28 28 27 27 26 26 26 26 27 27 27 27 27 27 27
21 21 22 24 25 25 25 26 26 26 26 27 27 27 28 28 29 29 29 29 29 29 28 28 29 29 29 30 30 29 29 28 28 28 27 28 28 28 28 28 28 28 28 28
22 21 22 23 25 25 26 27 27 27 27 28 29 28 29 29 29 29 29 29 28 28 28 28 28 28 28 28 29 29 29 29 29 29 28 29 29 29 29 30 30 29 29 29
21 23 24 23 24 25 25 26 26 27 27 27 28 28 28 28 28 28 28 28 28 27 27 28 29 29 29 29 29 29 28 28 29 29 30 30 31 31 31 30 30 30 29 29
22 22 23 23 23 24 25 25 26 26 26 26 27 27 27 28 27 28 28 28 28 28 28 28 29 30 30 30 30 29 28 28 29 29 30 31 32 31 30 30 30 30 29 29
22 22 23 23 23 24 25 25 26 26 26 27 27 27 27 27 27 27 27 28 28 28 29 29 29 29 30 31 31 31 30 29 30 30 30 31 32 31 31 31 31 30 31 30
23 23 23 23 23 24 24 25 26 26 26 26 27 27 27 27 26 26 27 28 29 29 29 29 29 29 30 31 31 31 30 30 30 30 30 32 32 32 32 32 32 32 31 32
23 22 22 23 24 24 23 24 24 24 25 25 26 26 26 27 27 27 27 28 29 29 29 29 30 30 30 31 31 30 30 30 30 30 30 31 31 32 32 33 32 32 32 33
22 22 22 22 23 23 23 23 24 24 24 25 25 25 26 26 27 27 27 28 28 28 29 29 29 28 29 30 31 30 29 29 30 30 30 30 31 31 32 32 32 32 32 33
21 22 22 22 23 23 24 24 25 25 25 25 25 25 25 26 26 27 28 28 29 29 28 28 28 28 29 30 30 30 29 29 29 29 29 30 30 30 30 30 31 31 32 33
21 21 22 22 22 24 24 24 24 24 24 24 24 24 25 25 26 27 27 27 28 28 27 27 27 27 28 29 29 29 29 29 29 29 29 29 29 29 29 29 30 31 31 32
22 22 22 22 22 23 24 24 24 23 24 24 24 24 25 25 25 26 26 27 27 27 27 26 26 26 26 27 27 28 27 26 27 28 28 29 29 29 28 28 29 30 31 31
21 22 23 23 22 22 23 23 23 23 23 24 25 25 25 25 25 25 25 26 26 26 26 26 25 24 25 26 26 26 25 23 24 25 26 26 26 27 27 27 28 28 29 30
23 23 23 23 23 23 23 23 23 23 24 24 25 25 25 25 25 24 25 26 26 25 25 25 24 24 24 24 24 23 22 21 21 22 22 23 24 25 25 26 26 27 27 28
24 24 24 24 24 23 23 23 24 24 25 25 25 25 25 24 24 24 25 25 26 25 24 24 24 23 22 22 21 20 20 20 20 20 20 20 21 22 23 24 24 25 26 27
25 25 25 25 24 24 24 24 25 25 25 25 25 25 25 24 24 25 24 24 25 24 23 23 23 22 21 20 19 18 18 18 18 18 19 19 20 21 21 22 23 24 25 26
25 25 25 25 25 24 24 24 24 25 24 25 25 24 24 24 24 24 24 24 24 22 22 23 22 21 19 18 18 18 18 18 18 18 18 19 20 20 21 21 22 23 25 26
23 24 24 24 24 24 24 25 25 25 24 25 25 24 24 23 23 23 23 22 21 21 22 22 21 20 18 17 18 18 18 17 18 18 19 19 20 20 21 22 22 23 25 26
24 23 24 24 25 25 25 24 24 24 24 24 24 24 24 24 23 23 23 22 21 21 22 21 21 19 18 18 17 17 17 18 18 19 19 20 20 21 22 22 22 23 23 25
Wind_Direction
258 257 255 255 256 257 258 263 266 264 264 267 269 272 273 275 277 280 283 285 284 283 283 283 282 284 285 283 280 277 275 272 270 268 264 262 259 256 253 251 250 249 248 248
258 259 260 257 256 259 260 262 265 264 264 267 269 272 274 276 278 280 282 282 281 281 281 281 281 282 284 281 277 275 274 272 270 267 265 263 260 257 253 251 250 247 246 247
258 259 261 257 257 258 260 261 264 266 267 267 268 272 275 277 278 279 279 279 279 280 281 281 281 281 281 278 276 276 274 271 269 267 265 262 260 258 254 251 250 247 245 245
258 259 260 258 257 258 260 263 265 268 268 268 269 271 273 275 276 277 277 277 278 279 280 281 280 279 277 275 274 275 274 271 268 267 265 263 260 257 254 251 249 247 245 246
260 259 259 258 259 260 262 263 265 267 268 269 271 272 272 273 275 276 277 277 278 279 279 279 279 278 276 274 274 275 274 271 269 266 263 261 259 257 254 250 246 245 245 246
263 262 262 263 261 261 264 264 267 268 269 270 272 273 274 274 275 276 277 277 277 278 278 278 278 277 277 274 273 272 271 270 268 266 263 259 258 257 255 252 247 244 243 245
264 264 263 263 263 265 266 268 270 272 273 274 274 276 277 276 276 277 278 278 278 277 277 277 277 277 276 274 272 271 270 269 267 266 262 258 257 256 255 252 250 246 245 245
267 266 265 263 264 267 269 270 272 274 276 277 276 276 277 277 278 278 279 279 278 277 277 277 277 276 275 274 273 271 270 269 268 266 262 258 255 255 254 253 251 249 247 247
268 268 267 265 265 268 270 272 274 277 278 278 278 278 278 279 280 280 280 280 279 278 278 277 277 276 275 274 272 270 269 268 266 264 261 258 255 255 254 252 252 251 250 250
269 271 270 266 268 269 271 275 277 279 280 281 281 280 279 280 280 280 280 280 280 279 279 278 276 275 274 273 272 270 268 266 264 263 260 257 256 255 254 253 253 252 251 252
270 272 272 271 271 271 273 276 277 279 281 283 282 282 281 281 280 280 280 280 279 280 281 280 277 275 274 273 272 271 268 267 264 261 259 256 255 255 255 254 254 252 250 251
273 273 271 273 273 273 275 276 277 279 281 282 283 284 283 283 282 280 280 280 280 281 281 280 278 276 274 273 271 271 270 268 266 262 259 256 255 255 255 253 252 251 250 250
273 272 272 274 274 274 275 277 279 280 281 282 283 284 284 284 282 280 280 280 281 281 281 280 278 277 275 274 272 271 271 268 265 263 260 256 254 254 253 251 251 251 249 249
273 275 276 275 276 276 277 278 279 280 281 282 283 283 283 283 282 281 281 281 281 282 282 281 280 279 276 274 272 272 271 268 266 263 259 256 254 254 252 251 250 251 248 247
275 277 278 276 277 277 279 279 279 280 281 282 283 283 283 282 282 282 282 283 283 283 283 282 282 280 277 274 273 272 271 269 267 263 259 257 255 253 252 251 251 250 249 248
273 276 278 277 277 277 278 279 280 281 283 285 285 284 284 283 283 284 285 285 286 286 285 285 284 282 278 276 275 273 271 269 266 263 260 258 255 253 252 251 252 250 249 248
274 275 276 277 277 279 281 282 283 284 286 287 287 287 286 285 286 287 288 287 287 287 286 286 285 284 282 279 277 274 271 268 266 264 261 258 257 255 253 252 252 250 251 249
275 276 277 277 278 280 283 284 284 285 286 287 287 287 287 287 288 288 289 289 289 287 288 288 286 285 282 280 278 275 273 270 266 263 261 258 256 255 254 253 252 251 250 249
277 278 279 278 279 281 284 284 284 285 285 287 288 289 289 290 290 290 291 292 291 289 289 288 287 286 284 282 279 277 277 273 267 263 260 258 255 255 255 254 253 251 250 249
276 278 279 280 280 283 284 284 284 284 285 286 288 290 291 291 292 294 294 295 294 293 291 289 288 286 285 282 279 278 277 273 268 264 261 259 256 254 254 253 252 251 250 250
277 277 279 281 282 283 285 285 285 286 287 288 290 291 292 293 294 295 297 297 297 296 293 291 289 287 286 284 280 278 277 275 269 264 262 260 256 255 255 253 252 252 251 251
278 278 279 282 283 284 285 285 286 288 290 291 292 292 293 293 293 295 297 298 297 296 294 293 291 290 289 287 284 280 277 275 271 265 261 258 256 256 255 254 252 252 251 252
279 279 280 282 283 283 283 285 286 289 291 291 291 292 293 293 294 296 297 298 297 296 296 295 295 293 291 287 283 280 277 273 268 263 261 260 258 257 256 254 253 252 251 252
279 278 279 282 283 282 282 283 285 288 289 290 291 293 293 293 294 297 297 296 296 295 295 296 298 295 291 288 283 279 275 270 266 264 264 262 261 259 258 258 257 256 255 255
279 279 279 280 281 282 283 283 285 287 288 288 291 293 292 293 294 295 296 296 294 292 294 296 298 297 291 287 281 276 273 270 266 265 265 264 263 263 262 263 262 260 258 257
280 280 279 279 281 282 283 284 286 287 288 289 290 291 292 293 295 297 296 295 292 292 293 295 297 297 292 286 282 277 274 270 267 267 265 264 266 267 266 265 265 265 263 262
279 279 280 281 282 282 283 285 286 286 287 289 290 290 292 293 294 295 294 293 292 293 293 294 297 296 290 285 283 281 278 272 269 269 268 268 268 268 268 267 268 269 267 266
Height
5806 5806 5807 5808 5808 5809 5809 5809 5810 5810 5810 5810 5810 5810 5809 5809 5808 5808 5807 5806 5805 5804 5803 5802 5801 5799 5798 5797 5797 5796 5796 5795 5795 5795 5795 5795 5796 5796 5797 5798 5799 5800 5801 5802
5799 5799 5799 5800 5802 5802 5802 5802 5803 5803 5804 5804 5804 5803 5803 5802 5802 5801 5800 5799 5799 5798 5796 5795 5794 5793 5792 5791 5790 5789 5789 5789 5789 5788 5789 5789 5789 5790 5791 5792 5793 5794 5796 5797
5793 5793 5792 5794 5796 5795 5796 5796 5796 5797 5798 5797 5797 5796 5796 5795 5794 5793 5793 5792 5791 5790 5789 5788 5787 5786 5785 5783 5783 5782 5782 5781 5781 5781 5781 5782 5782 5782 5784 5785 5786 5788 5789 5791
5786 5787 5787 5790 5789 5789 5789 5790 5790 5790 5790 5790 5790 5789 5788 5787 5786 5786 5785 5784 5783 5782 5781 5780 5779 5778 5777 5776 5775 5774 5774 5774 5774 5773 5774 5774 5775 5775 5776 5778 5779 5781 5782 5784
5778 5779 5780 5783 5782 5782 5782 5783 5783 5783 5783 5783 5782 5782 5781 5780 5779 5778 5777 5776 5775 5774 5773 5772 5771 5769 5768 5768 5767 5766 5766 5765 5765 5765 5766 5766 5767 5768 5769 5770 5772 5774 5775 5777
5771 5771 5773 5776 5775 5775 5776 5776 5776 5776 5775 5775 5774 5774 5774 5772 5771 5770 5769 5768 5767 5766 5765 5764 5762 5761 5760 5760 5759 5758 5758 5758 5757 5757 5758 5759 5760 5761 5761 5762 5764 5766 5768 5770
5764 5764 5765 5768 5768 5768 5769 5770 5769 5768 5768 5767 5767 5766 5766 5764 5763 5762 5760 5759 5758 5757 5756 5755 5754 5753 5752 5751 5751 5750 5749 5749 5749 5749 5749 5750 5752 5753 5754 5755 5756 5758 5760 5762
5757 5757 5761 5760 5760 5761 5761 5761 5760 5760 5759 5759 5759 5758 5756 5755 5754 5753 5752 5751 5749 5748 5747 5746 5745 5744 5743 5742 5742 5741 5740 5740 5740 5740 5740 5741 5743 5744 5745 5747 5748 5750 5752 5754
5752 5753 5753 5752 5752 5752 5752 5752 5752 5752 5752 5751 5750 5749 5748 5746 5745 5744 5743 5741 5740 5738 5738 5737 5736 5734 5733 5732 5731 5731 5730 5730 5731 5731 5731 5732 5733 5735 5736 5738 5740 5742 5744 5746
5744 5745 5745 5745 5745 5745 5745 5744 5744 5743 5743 5742 5741 5740 5738 5737 5736 5734 5733 5731 5730 5729 5728 5727 5726 5725 5723 5722 5721 5720 5720 5720 5721 5721 5722 5722 5724 5726 5727 5729 5731 5733 5735 5737
5737 5738 5737 5737 5737 5737 5737 5736 5736 5735 5734 5732 5731 5730 5729 5727 5726 5725 5723 5722 5720 5719 5718 5717 5716 5715 5713 5712 5711 5710 5710 5710 5711 5711 5711 5713 5714 5716 5718 5720 5721 5723 5726 5728
5730 5730 5730 5731 5730 5729 5729 5728 5727 5726 5725 5724 5722 5721 5719 5718 5716 5715 5713 5712 5711 5710 5708 5707 5706 5704 5703 5702 5701 5700 5700 5700 5700 5700 5701 5702 5704 5706 5707 5709 5711 5713 5716 5718
5723 5722 5722 5723 5722 5721 5721 5720 5719 5718 5716 5715 5714 5712 5710 5709 5707 5706 5704 5703 5701 5700 5699 5697 5695 5694 5693 5691 5690 5690 5690 5690 5690 5690 5690 5691 5693 5695 5697 5699 5701 5703 5706 5708
5715 5715 5715 5715 5715 5714 5713 5712 5710 5709 5708 5706 5705 5703 5701 5699 5698 5697 5696 5694 5692 5690 5689 5687 5685 5684 5682 5681 5680 5679 5679 5679 5679 5679 5680 5681 5683 5685 5687 5689 5692 5694 5696 5698
5709 5708 5708 5707 5707 5706 5705 5704 5703 5701 5700 5698 5696 5695 5693 5691 5690 5688 5687 5685 5682 5681 5679 5677 5675 5673 5672 5670 5669 5669 5668 5668 5668 5669 5670 5671 5673 5674 5677 5679 5681 5683 5686 5688
5702 5702 5701 5700 5699 5698 5697 5696 5695 5693 5692 5690 5688 5686 5684 5683 5681 5679 5678 5675 5673 5671 5669 5667 5665 5663 5661 5660 5659 5658 5658 5658 5657 5658 5659 5660 5662 5663 5666 5668 5670 5672 5675 5677
5695 5695 5694 5694 5692 5691 5690 5689 5687 5686 5684 5682 5680 5678 5676 5674 5672 5670 5669 5666 5664 5662 5659 5657 5655 5653 5651 5650 5648 5647 5647 5647 5647 5647 5648 5649 5651 5653 5655 5657 5659 5661 5664 5666
5687 5687 5687 5686 5685 5684 5682 5681 5679 5678 5676 5674 5672 5670 5668 5666 5664 5662 5660 5657 5655 5652 5650 5648 5646 5644 5642 5640 5638 5637 5637 5637 5637 5637 5638 5639 5640 5642 5644 5646 5648 5650 5653 5655
5680 5680 5679 5678 5677 5676 5675 5673 5672 5670 5668 5666 5664 5662 5660 5658 5656 5653 5651 5648 5646 5643 5641 5639 5637 5634 5633 5631 5629 5628 5627 5626 5626 5627 5628 5629 5630 5632 5634 5636 5638 5640 5642 5645
5673 5673 5672 5671 5670 5668 5667 5665 5664 5662 5661 5659 5656 5654 5652 5650 5648 5645 5642 5640 5637 5635 5632 5630 5628 5626 5624 5622 5620 5619 5617 5617 5617 5617 5618 5619 5621 5623 5624 5626 5628 5630 5632 5635
5666 5665 5664 5663 5662 5661 5660 5658 5656 5655 5653 5651 5649 5647 5645 5642 5640 5637 5634 5632 5629 5627 5624 5622 5620 5618 5616 5613 5611 5610 5609 5608 5608 5609 5610 5610 5612 5613 5615 5617 5619 5621 5622 5624
5659 5658 5657 5656 5655 5654 5652 5651 5649 5647 5646 5643 5641 5639 5637 5635 5632 5629 5627 5624 5622 5619 5616 5614 5612 5610 5608 5605 5603 5602 5601 5601 5601 5601 5602 5603 5604 5605 5607 5608 5610 5611 5613 5615
5651 5650 5649 5649 5647 5646 5645 5643 5641 5640 5638 5636 5634 5632 5629 5627 5624 5622 5620 5617 5614 5611 5609 5606 5604 5602 5599 5597 5596 5595 5594 5594 5594 5595 5595 5596 5597 5598 5599 5600 5602 5603 5604 5606
5644 5643 5642 5640 5639 5638 5637 5635 5634 5632 5630 5628 5626 5624 5621 5619 5617 5614 5612 5609 5607 5604 5602 5599 5597 5595 5592 5591 5590 5589 5589 5588 5588 5589 5589 5590 5590 5591 5592 5593 5594 5595 5596 5597
5636 5635 5634 5632 5631 5630 5629 5627 5626 5624 5622 5620 5619 5616 5614 5612 5610 5607 5605 5602 5600 5598 5595 5593 5591 5588 5587 5585 5584 5583 5583 5583 5583 5583 5583 5584 5584 5585 5586 5586 5587 5587 5588 5589
5628 5627 5626 5625 5623 5622 5621 5619 5618 5616 5615 5613 5611 5609 5607 5605 5603 5600 5598 5596 5593 5591 5589 5587 5584 5582 5581 5579 5578 5577 5577 5577 5577 5577 5577 5578 5578 5578 5578 5579 5579 5579 5580 5581
5621 5620 5619 5617 5616 5615 5613 5612 5610 5608 5607 5605 5604 5601 5599 5597 5595 5593 5591 5589 5586 5585 5583 5580 5578 5576 5575 5574 5573 5572 5571 5571 5571 5571 5571 5571 5571 5571 5571 5571 5571 5572 5572 5572